This is the latest recevied weather packets stored in our database for station/object NK7E-1. If no packets are shown the sender has not sent any weather packets the latest 10 day(s).
| Time | Temp. | Humidity | Pressure | Rain* | Wind** | Luminosity | Snow |
|---|---|---|---|---|---|---|---|
| 1777457397 | 18.89° C | 25% | 1016.5 hPa | 0 mm | - | - | - |
| 1777456798 | 18.89° C | 25% | 1016.4 hPa | 0 mm | - | - | - |
| 1777456198 | 18.89° C | 25% | 1016.6 hPa | 0 mm | - | - | - |
| 1777455599 | 19.44° C | 24% | 1016.6 hPa | 0 mm | - | - | - |
| 1777454997 | 19.44° C | 24% | 1016.7 hPa | 0 mm | - | - | - |
| 1777454398 | 20° C | 24% | 1016.6 hPa | 0 mm | - | - | - |
| 1777453798 | 20° C | 24% | 1016.7 hPa | 0 mm | - | - | - |
| 1777453200 | 20° C | 23% | 1016.8 hPa | 0 mm | - | - | - |
| 1777452599 | 20.56° C | 23% | 1016.6 hPa | 0 mm | - | - | - |
| 1777451999 | 21.11° C | 22% | 1016.7 hPa | 0 mm | - | - | - |
| 1777451399 | 21.11° C | 21% | 1016.6 hPa | 0 mm | - | - | - |
| 1777450799 | 21.11° C | 21% | 1016.8 hPa | 0 mm | - | - | - |
| 1777450199 | 21.11° C | 21% | 1016.8 hPa | 0 mm | - | - | - |
| 1777449600 | 21.11° C | 22% | 1016.7 hPa | 0 mm | - | - | - |
| 1777448999 | 21.67° C | 21% | 1016.8 hPa | 0 mm | - | - | - |
| 1777448399 | 22.22° C | 21% | 1016.8 hPa | 0 mm | - | - | - |
| 1777447800 | 22.22° C | 20% | 1016.7 hPa | 0 mm | - | - | - |
| 1777447199 | 22.22° C | 19% | 1016.9 hPa | 0 mm | - | - | - |
| 1777446600 | 22.22° C | 17% | 1016.9 hPa | 0 mm | - | - | - |
| 1777446000 | 22.22° C | 16% | 1016.6 hPa | 0 mm | - | - | - |
| 1777445399 | 22.22° C | 17% | 1016.8 hPa | 0 mm | - | - | - |
| 1777444799 | 22.22° C | 17% | 1016.7 hPa | 0 mm | - | - | - |
| 1777444200 | 22.22° C | 16% | 1016.7 hPa | 0 mm | - | - | - |
| 1777443600 | 22.22° C | 16% | 1016.8 hPa | 0 mm | - | - | - |
| 1777443000 | 21.67° C | 17% | 1016.6 hPa | 0 mm | - | - | - |
* Rain latest hour (hover to see other rain measurements)
** Current wind speed in m/s (hover to see current wind gust speed)